Location: *
(34.8620°S, 39.3380°E)
Time: 23:13:05
(UTC+00:00)

SAOCOM 1-B - Pass Details

Date: 04 June 2022
Orbit: 621 x 623 km, 97.9° (Epoch: 01 July)

Event Time Altitude Azimuth Distance (km) Brightness Sun altitude
Rises 03:08:52 0° 161° (SSE) 2,938 ? -15.0°
Reaches altitude 10° 03:11:10 10° 155° (SSE) 2,023 ? -14.5°
Maximum altitude 03:15:24 46° 81° (E) 846 ? -13.7°
Drops below altitude 10° 03:19:35 10° 7° (N) 1,996 ? -12.9°
Sets 03:21:50 0° 0° (N) 2,893 ? -12.4°
